Kingston, Jamaica

4:46 PM EST on February 24, 2017 (GMT -0500)
Norman Manley International

Weather History for MKJP - February, 2011

Change the Weather History Date:

Sunday, February 13, 2011

  Actual Average Record
Temperature  
Mean Temperature 82 °F -  
Max Temperature 88 °F 84 °F 91 °F (1997)
Min Temperature 75 °F 74 °F 70 °F (2015)
Cooling Degree Days 16    
Growing Degree Days 32 (Base 50)    
Moisture  
Dew Point 63 °F    
Average Humidity 58    
Maximum Humidity 69    
Minimum Humidity 43    
Precipitation  
Precipitation 0.00 in - - ()
Sea Level Pressure  
Sea Level Pressure 30.00 in    
Wind  
Wind Speed 5 mph ()    
Max Wind Speed 9 mph    
Max Gust Speed -    
Visibility 8.0 miles    
Events      
Averages and records for this station are not official NWS values.
T = Trace of Precipitation, MM = Missing Value Source: Averaged Metar Reports

Daily Weather History Graph

Daily Weather History Graph

Search for Another Location

Airport or City:

Trip Planner

Search our weather history database for the weather conditions in past years. The results will help you decide how hot, cold, wet, or windy it might be!

Date:

Astronomy

Feb. 13, 2011 Rise Set
Actual Time 6:35 AM EST 6:07 PM EST
Civil Twilight 6:13 AM EST 6:29 PM EST
Nautical Twilight 5:47 AM EST 6:55 PM EST
Astronomical Twilight 5:21 AM EST 7:21 PM EST
Moon 1:33 PM EST (2/13) 2:13 AM EST (2/13)
Length of Visible Light 12h 16m
Length of Day
11h 32m
Waxing Gibbous, 74% of the Moon is Illuminated
Feb 13
Waxing Gibbous
Feb 18
Full
Feb 24
Last Quarter
Mar 4
New
Mar 12
First Quarter

Hourly Weather History & Observations

Time (EST) Temp. Heat Index Dew Point Humidity Pressure Visibility Wind Dir Wind Speed Gust Speed Precip Events Conditions
12:00 AM 75.2 °F - 62.6 °F 65% 30.01 in 6.2 mi North 9.2 mph - N/A   Mostly Cloudy
1:00 AM 75 °F - 62 °F 56% 30.01 in 16 mi North 8.1 mph - -   Haze
1:00 AM 75.2 °F - 62.6 °F 65% 30.01 in 6.2 mi North 8.1 mph - N/A   Mostly Cloudy
2:00 AM 75.2 °F - 64.4 °F 69% 29.98 in 6.2 mi North 8.1 mph - N/A   Scattered Clouds
3:00 AM 75.2 °F - 62.6 °F 65% 29.98 in 6.2 mi NNW 8.1 mph - N/A   Mostly Cloudy
4:00 AM 75 °F - 63 °F 57% 29.99 in 16 mi NNW 5.8 mph - -   Haze
4:00 AM 75.2 °F - 62.6 °F 65% 29.98 in 6.2 mi NNW 5.8 mph - N/A   Mostly Cloudy
5:00 AM 75.2 °F - 64.4 °F 69% 29.98 in 6.2 mi NNW 4.6 mph - N/A   Mostly Cloudy
6:00 AM 75.2 °F - 62.6 °F 65% 29.98 in 6.2 mi North 5.8 mph - N/A   Scattered Clouds
7:00 AM 75 °F - 62 °F 55% 30.03 in 14 mi NW 3.5 mph - -   Haze
7:00 AM 75.2 °F - 62.6 °F 65% 30.01 in 6.2 mi NW 3.5 mph - N/A   Scattered Clouds
8:00 AM 77.0 °F - 62.6 °F 61% 30.04 in 6.2 mi NW 3.5 mph - N/A   Partly Cloudy
9:00 AM 78.8 °F - 62.6 °F 57% 30.04 in 6.2 mi NNW 4.6 mph - N/A   Scattered Clouds
10:00 AM 79 °F - 61 °F 44% 30.06 in 12 mi SW 4.6 mph - -   Haze
10:00 AM 78.8 °F - 60.8 °F 54% 30.06 in 6.2 mi SW 4.6 mph - N/A   Scattered Clouds
11:00 AM 82.4 °F 82.9 °F 60.8 °F 48% 30.04 in 6.2 mi SSW 3.5 mph - N/A   Scattered Clouds
12:00 PM 82.4 °F 82.9 °F 60.8 °F 48% 30.01 in 6.2 mi North 3.5 mph - N/A   Mostly Cloudy
1:00 PM 81 °F - 62 °F 43% 30.02 in 12 mi South 6.9 mph - -   Haze
1:00 PM 80.6 °F 81.8 °F 62.6 °F 54% 30.01 in 6.2 mi South 6.9 mph - N/A   Mostly Cloudy
2:00 PM 80.6 °F 82.3 °F 64.4 °F 58% 29.98 in 6.2 mi SSE 5.8 mph - N/A   Scattered Clouds
3:00 PM 82.4 °F 83.9 °F 64.4 °F 54% 29.95 in 6.2 mi South 3.5 mph - N/A   Scattered Clouds
4:00 PM 80 °F - 66 °F 53% 29.96 in 12 mi SSW 4.6 mph - -   Haze
4:00 PM 80.6 °F 82.7 °F 66.2 °F 61% 29.95 in 6.2 mi SSW 4.6 mph - N/A   Mostly Cloudy
5:00 PM 80.6 °F 82.7 °F 66.2 °F 61% 29.95 in 6.2 mi South 6.9 mph - N/A   Mostly Cloudy
6:00 PM 78.8 °F - 64.4 °F 61% 29.98 in 6.2 mi ESE 3.5 mph - N/A   Mostly Cloudy
7:00 PM 79 °F - 63 °F 48% 30.00 in 12 mi ENE 6.9 mph - -   Haze
7:00 PM 78.8 °F - 62.6 °F 57% 29.98 in 6.2 mi ENE 6.9 mph - N/A   Mostly Cloudy
8:00 PM 78.8 °F - 64.4 °F 61% 30.01 in 6.2 mi NW 6.9 mph - N/A   Mostly Cloudy
9:00 PM 77.0 °F - 64.4 °F 65% 30.04 in 6.2 mi NNW 4.6 mph - N/A   Mostly Cloudy
10:00 PM 77 °F - 64 °F 54% 30.04 in 12 mi NNW 1.2 mph - -   Haze
10:00 PM 77.0 °F - 64.4 °F 65% 30.04 in 6.2 mi Variable 1.2 mph - N/A   Scattered Clouds
11:00 PM 77.0 °F - 64.4 °F 65% 30.04 in 6.2 mi Calm Calm - N/A   Partly Cloudy